Hamilton, Ontario

10:04 AM EDT on April 21, 2018 (GMT -0400)
Hamilton

Weather History for CXHM - October, 2013

Change the Weather History Date:

Thursday, October 10, 2013

  Actual Average Record
Temperature  
Mean Temperature 53 °F -  
Max Temperature 62 °F - - ()
Min Temperature 44 °F - - ()
Degree Days  
Heating Degree Days 12    
Growing Degree Days 3 (Base 50)    
Moisture  
Dew Point 49 °F    
Average Humidity 91    
Maximum Humidity 97    
Minimum Humidity 75    
Precipitation  
Precipitation 0.00 in - - ()
Sea Level Pressure  
Sea Level Pressure 30.22 in    
Wind  
Wind Speed 1 mph ()    
Max Wind Speed 5 mph    
Max Gust Speed -    
T = Trace of Precipitation, MM = Missing Value Source: Averaged Metar Reports

Daily Weather History Graph

Daily Weather History Graph

Search for Another Location

Airport or City:

Astronomy

Oct. 10, 2013 Rise Set
Actual Time 7:27 AM EDT 6:44 PM EDT
Civil Twilight 6:59 AM EDT 7:13 PM EDT
Nautical Twilight 6:26 AM EDT 7:46 PM EDT
Astronomical Twilight 5:52 AM EDT 8:19 PM EDT
Moon 1:24 PM EDT (10/10) 11:14 PM EDT (10/10)
Length of Visible Light 12h 13m
Length of Day
11h 16m
Waxing Crescent, 35% of the Moon is Illuminated
Oct 10
Waxing Crescent
Oct 11
First Quarter
Oct 18
Full
Oct 26
Last Quarter
Nov 3
New

Hourly Weather History & Observations

Time (EDT) Temp. Dew Point Humidity Pressure Visibility Wind Dir Wind Speed Gust Speed Precip Events Conditions
12:00 AM 46.4 °F 45.1 °F 95% 30.26 in - Calm Calm - N/A   Unknown
1:00 AM 45.5 °F 44.2 °F 95% 30.24 in - Calm Calm - N/A   Unknown
2:00 AM 45 °F 44 °F 93% 30.24 in - Calm Calm - -  
2:00 AM 44.8 °F 43.7 °F 96% 30.24 in - Calm Calm - N/A   Unknown
3:00 AM 44.2 °F 43.2 °F 96% 30.23 in - Calm Calm - N/A   Unknown
4:00 AM 47.3 °F 46.4 °F 97% 30.23 in - Calm Calm - N/A   Unknown
5:00 AM 48.7 °F 47.8 °F 97% 30.24 in - Calm Calm - N/A   Unknown
6:00 AM 52.5 °F 51.6 °F 97% 30.24 in - North 1.2 mph - N/A   Unknown
7:00 AM 52.3 °F 51.4 °F 97% 30.26 in - WNW 1.2 mph - N/A   Unknown
8:00 AM 51 °F 50 °F 97% 30.26 in - NNW 2.3 mph - -  
8:00 AM 51.3 °F 50.4 °F 97% 30.26 in - NNW 2.3 mph - N/A   Unknown
9:00 AM 50.7 °F 49.8 °F 97% 30.26 in - NW 2.3 mph - N/A   Unknown
10:00 AM 51.8 °F 50.9 °F 97% 30.27 in - SW 1.2 mph - N/A   Unknown
11:00 AM 54.0 °F 52.9 °F 96% 30.25 in - SSE 2.3 mph - N/A   Unknown
12:00 PM 56.5 °F 52.0 °F 85% 30.24 in - ESE 3.5 mph - N/A   Unknown
1:00 PM 59.7 °F 52.0 °F 76% 30.22 in - SE 4.6 mph - N/A   Unknown
2:00 PM 59 °F 53 °F 75% 30.21 in - SE 4.6 mph - -  
2:00 PM 59.2 °F 53.2 °F 81% 30.21 in - SE 4.6 mph - N/A   Unknown
3:00 PM 61.9 °F 55.0 °F 78% 30.19 in - SE 3.5 mph - N/A   Unknown
4:00 PM 59.5 °F 54.0 °F 82% 30.18 in - SSE 4.6 mph - N/A   Unknown
5:00 PM 58.8 °F 52.9 °F 81% 30.18 in - ESE 3.5 mph - N/A   Unknown
6:00 PM 57.7 °F 53.1 °F 84% 30.17 in - ENE 2.3 mph - N/A   Unknown
7:00 PM 53.6 °F 50.4 °F 89% 30.17 in - Calm Calm - N/A   Unknown
8:00 PM 50 °F 48 °F 91% 30.17 in - Calm Calm - -  
8:00 PM 50.2 °F 48.2 °F 93% 30.17 in - Calm Calm - N/A   Unknown
9:00 PM 48.9 °F 47.5 °F 95% 30.16 in - Calm Calm - N/A   Unknown
10:00 PM 49.5 °F 48.2 °F 95% 30.15 in - NNE 1.2 mph - N/A   Unknown
11:00 PM 48.0 °F 46.8 °F 95% 30.15 in - West 2.3 mph - N/A   Unknown